This is the latest recevied weather packets stored in our database for station/object WA1TYB-13. If no packets are shown the sender has not sent any weather packets the latest 10 day(s).
| Time | Temp. | Humidity | Pressure | Rain* | Wind** | Luminosity | Snow |
|---|---|---|---|---|---|---|---|
| 1778205333 | 16.11° C | 45% | 1014.3 hPa | 0 mm | - | 34 W/m² | - |
| 1778205030 | 16.11° C | 45% | 1014.5 hPa | 0 mm | - | 39 W/m² | - |
| 1778204726 | 16.67° C | 46% | 1014.4 hPa | 0 mm | - | 43 W/m² | - |
| 1778204423 | 16.67° C | 45% | 1014.3 hPa | 0 mm | - | 49 W/m² | - |
| 1778204119 | 16.67° C | 44% | 1014.3 hPa | 0 mm | - | 63 W/m² | - |
| 1778203816 | 16.67° C | 45% | 1014.2 hPa | 0 mm | - | 75 W/m² | - |
| 1778203514 | 16.67° C | 43% | 1014.2 hPa | 0 mm | - | 82 W/m² | - |
| 1778203211 | 16.67° C | 42% | 1014.3 hPa | 0 mm | - | 95 W/m² | - |
| 1778202909 | 16.11° C | 42% | 1014.7 hPa | 0 mm | - | 78 W/m² | - |
| 1778202606 | 16.11° C | 44% | 1014.3 hPa | 0 mm | - | 65 W/m² | - |
| 1778202303 | 16.67° C | 44% | 1014.4 hPa | 0 mm | - | 62 W/m² | - |
| 1778202000 | 16.67° C | 43% | 1014.8 hPa | 0 mm | - | 147 W/m² | - |
| 1778201696 | 17.22° C | 43% | 1014.5 hPa | 0 mm | - | 158 W/m² | - |
| 1778201393 | 17.22° C | 44% | 1014.9 hPa | 0 mm | - | 192 W/m² | - |
| 1778201089 | 16.67° C | 42% | 1014.9 hPa | 0 mm | - | 210 W/m² | - |
| 1778200786 | 16.67° C | 43% | 1014.8 hPa | 0 mm | - | 207 W/m² | - |
| 1778200483 | 16.11° C | 46% | 1014.9 hPa | 0 mm | - | 130 W/m² | - |
| 1778200180 | 16.11° C | 47% | 1015 hPa | 0 mm | - | 88 W/m² | - |
| 1778199876 | 16.11° C | 45% | 1014.8 hPa | 0 mm | - | 87 W/m² | - |
| 1778199572 | 16.11° C | 44% | 1014.9 hPa | 0 mm | - | 214 W/m² | - |
| 1778199269 | 16.67° C | 44% | 1015.1 hPa | 0 mm | - | 261 W/m² | - |
| 1778198966 | 16.11° C | 44% | 1015.2 hPa | 0 mm | - | 102 W/m² | - |
| 1778198662 | 16.67° C | 43% | 1014.9 hPa | 0 mm | - | 94 W/m² | - |
| 1778198359 | 16.11° C | 42% | 1014.8 hPa | 0 mm | - | 144 W/m² | - |
| 1778198056 | 16.11° C | 43% | 1014.9 hPa | 0 mm | - | 110 W/m² | - |
* Rain latest hour (hover to see other rain measurements)
** Current wind speed in m/s (hover to see current wind gust speed)